Regional Weather Roundup
Issued by NWS

Home | Current Version | Previous Version | Graphics & Text | Print | Product List | Glossary On
Versions: 1 2 3 4 5 6 7 8 9 10 11 12 13 14 15 16 17 18 19 20 21 22 23 24 25 26 27
000
ASUS45 KBOU 231207
RWRCO

WEATHER ROUNDUP FOR COLORADO
NATIONAL WEATHER SERVICE DENVER/BOULDER CO
500 AM MST MON JAN 23 2017

NOTE: "FAIR" INDICATES FEW OR NO CLOUDS BELOW 12000 FEET WITH NO
SIGNIFICANT WEATHER AND/OR OBSTRUCTIONS TO VISIBILITY.

COZ001>005-013-030-031-231300-
...NORTHWEST COLORADO...

CITY           SKY/WX    TMP DP  RH WIND       PRES   REMARKS
CRAIG          CLOUDY    29  20  69 NE6       29.68F WCI  23
HAYDEN         CLOUDY    25  18  74 SE10      29.68F WCI  15
MEEKER         FLURRIES  32  25  75 SW8       29.70F WCI  25
MOUNT WERNER   NOT AVBL
STEAMBOAT SPGS CLOUDY    22  20  90 NE3       29.68F
WALDEN           N/A     27  18  69 S12       29.67F WCI  16
$$

COZ006>008-011-231300-
...WEST CENTRAL VALLEYS...

CITY           SKY/WX    TMP DP  RH WIND       PRES   REMARKS
GRAND JUNCTION CLOUDY    37  29  72 SE16      29.75F
MONTROSE       FAIR      28  26  92 S6        29.82F WCI  22
EAGLE          LGT SNOW  25  23  93 E5        29.77F FOG     WCI  19
RIFLE          LGT SNOW  30  28  92 CALM      29.77F FOG
DELTA          CLOUDY    35  30  82 NE6       29.82F WCI  30
NUCLA          MOCLDY    34  28  80 S16G22    29.84F WCI  23
$$

COZ017>023-064>068-231300-
...SOUTHWEST COLORADO...

CITY           SKY/WX    TMP DP  RH WIND       PRES   REMARKS
DURANGO        LGT SNOW  25  22  88 N3        29.96F FOG
CORTEZ         CLOUDY    31  26  82 CALM      29.92F
PAGOSA SPRINGS LGT SNOW  24  24  98 CALM      29.95F
TELLURIDE      NOT AVBL
WOLF CREEK PAS CLOUDY    10   9  92 MISG      29.88F
$$

COZ009-010-012-014-032>034-037-058>063-231300-
...CENTRAL COLORADO...

CITY           SKY/WX    TMP DP  RH WIND       PRES   REMARKS
ASPEN          CLOUDY    24  22  91 SW5       29.71F WCI  18
BUENA VISTA    LGT SNOW  23  20  89 W3        29.76F
COPPER MTN     HVY SNOW  23  16  74 MISG      29.70S VSB<1/4
BERTHOUD PASS  CLOUDY    14   3  62 MISG      29.63F
COTTONWOOD PAS LGT SNOW  23  19  86 SE8       29.73F WCI  14
GUNNISON       FLURRIES  20  17  88 W5        29.83F WCI  13
KREMMLING      CLOUDY    34  25  69 SW13G21   29.71F WCI  25
LEADVILLE      SNOW      21  18  88 NE6       29.71F VSB 1/2 WCI  13
MONARCH PASS   CLOUDY    14  10  85 W10G32    29.82F WCI   1
SALIDA         CLOUDY    32  19  58 S8        29.84F WCI  25
SUNLIGHT       CLOUDY    18  16  93 SW21G35   29.73F WCI   1
WILKERSON PASS LGT SNOW  18  14  86 SW15G25   29.74S VSB 3/4 WCI   3
$$

COZ069>075-231300-
...SAN LUIS VALLEY/SANGRE DE CRISTO MOUNTAINS...

CITY           SKY/WX    TMP DP  RH WIND       PRES   REMARKS
ALAMOSA        FAIR      24  18  77 S21       29.85F WCI   9
LA VETA PASS   CLOUDY    21  18  86 NE25G43   29.80F WCI   4
SAGUACHE       FAIR      18  14  86 W3        29.86F
$$

COZ035-036-038>040-231300-
...NORTHERN COLORADO FRONT RANGE...

CITY           SKY/WX    TMP DP  RH WIND       PRES   REMARKS
DENVER INTL AP FAIR      26  18  71 SW7       29.67R WCI  18
DMNS CITY PARK   N/A     26  17  67 SE12      29.66F WCI  16
AURORA         PTCLDY    24  16  73 SW5       29.69S WCI  18
FRONT RANGE AP FAIR      27  21  80 SW6       29.66F WCI  20
ERIE MUNI ARPT MOCLDY    26  21  81 CALM      29.67F
BOULDER MUN AP MOCLDY    30  19  64 CALM      29.67F
CENTENNIAL     FAIR      26  15  63 CALM      29.68S
BROOMFIELD     FAIR      30  19  64 SE3       29.67F
FORT COLLINS   FAIR      21  16  79 CALM      29.67F
LONGMONT       MOCLDY    27  20  77 S3        29.70S
$$

COZ041-046-047-076>085-087-088-231300-
...PIKES PEAK/PALMER DIVIDE AND SOUTHERN FOOTHILLS...

CITY           SKY/WX    TMP DP  RH WIND       PRES   REMARKS
COLO. SPRINGS  FAIR      25  15  66 NW6       29.72R WCI  18
A. F. ACADEMY  FAIR      21  14  72 N6        29.70S WCI  14
SCHRIEVER AFB  NOT AVBL
ELLICOTT       FAIR     N/A N/A N/A NW6       29.70R
FALCON         FAIR      28  17  64 SW8       29.71F WCI  19
FORT CARSON    NOT AVBL
LIMON          FAIR      22  17  81 SE6       29.67F WCI  14
MONUMENT HILL  FAIR      34  21  60 SW14      29.69S WCI  24
TRINIDAD       FAIR      35  21  56 W9        29.75F WCI  28
$$

COZ042>045-048>051-090-091-231300-
...NORTHEAST COLORADO...

CITY           SKY/WX    TMP DP  RH WIND       PRES   REMARKS
GREELEY ARPT   FAIR      22  19  89 NW7       29.68F WCI  13
AKRON          FAIR      29  21  72 S12       29.66F WCI  19
BURLINGTON     FAIR      34  25  69 S12       29.72S WCI  25
WRAY           FAIR      32  25  74 E6        29.73F WCI  26
STERLING       FAIR      30  23  74 S7        29.66F WCI  23
HOLYOKE        FAIR      32  27  80 SE7       29.72F WCI  26
FORT MORGAN    FAIR      27  19  70 S5        29.66F WCI  22
$$

COZ086-089-092>099-231300-
...SOUTHEAST COLORADO...

CITY           SKY/WX    TMP DP  RH WIND       PRES   REMARKS
PUEBLO         FAIR      27  19  72 NW12      29.72R WCI  17
LA JUNTA       FAIR      32  23  69 W14       29.72S WCI  22
LAMAR          FAIR      36  23  59 S18G26    29.67F
SPRINGFIELD      N/A     29  22  75 SW8       29.75F WCI  21
$$




USA.gov is the U.S. government's official web portal to all federal, state and local government web resources and services.